This is the latest recevied weather packets stored in our database for station/object N7CW. If no packets are shown the sender has not sent any weather packets the latest 10 day(s).
| Time | Temp. | Humidity | Pressure | Rain* | Wind** | Luminosity | Snow |
|---|---|---|---|---|---|---|---|
| 1777347134 | 8.89° C | 38% | 1015.8 hPa | 0 mm | - | 0 W/m² | - |
| 1777346830 | 8.89° C | 38% | 1015.8 hPa | 0 mm | - | 0 W/m² | - |
| 1777346528 | 9.44° C | 37% | 1015.7 hPa | 0 mm | - | 0 W/m² | - |
| 1777346224 | 9.44° C | 38% | 1015.5 hPa | 0 mm | - | 0 W/m² | - |
| 1777345921 | 9.44° C | 36% | 1015.4 hPa | 0 mm | - | 0 W/m² | - |
| 1777345619 | 9.44° C | 37% | 1015.4 hPa | 0 mm | - | 0 W/m² | - |
| 1777345315 | 9.44° C | 37% | 1015.3 hPa | 0 mm | - | 0 W/m² | - |
| 1777345012 | 9.44° C | 38% | 1015.4 hPa | 0 mm | - | 0 W/m² | - |
| 1777344708 | 10° C | 37% | 1015.4 hPa | 0 mm | - | 0 W/m² | - |
| 1777344404 | 10° C | 37% | 1015.2 hPa | 0 mm | - | 0 W/m² | - |
| 1777343799 | 10° C | 36% | 1014.9 hPa | 0 mm | - | 0 W/m² | - |
| 1777343497 | 10° C | 36% | 1014.8 hPa | 0 mm | - | 0 W/m² | - |
| 1777343194 | 10° C | 36% | 1014.8 hPa | 0 mm | - | 0 W/m² | - |
| 1777342891 | 10.56° C | 36% | 1014.8 hPa | 0 mm | - | 1 W/m² | - |
| 1777342285 | 10.56° C | 36% | 1014.6 hPa | 0 mm | - | 4 W/m² | - |
| 1777341982 | 10.56° C | 36% | 1014.6 hPa | 0 mm | - | 6 W/m² | - |
| 1777341678 | 10.56° C | 35% | 1014.6 hPa | 0 mm | - | 9 W/m² | - |
| 1777341375 | 11.11° C | 35% | 1014.7 hPa | 0 mm | - | 12 W/m² | - |
| 1777341071 | 11.11° C | 34% | 1014.8 hPa | 0 mm | - | 15 W/m² | - |
| 1777340768 | 11.11° C | 34% | 1014.8 hPa | 0 mm | - | 18 W/m² | - |
| 1777340467 | 11.67° C | 33% | 1014.7 hPa | 0 mm | - | 22 W/m² | - |
| 1777340163 | 11.67° C | 33% | 1014.6 hPa | 0 mm | - | 28 W/m² | - |
| 1777339860 | 11.67° C | 33% | 1014.7 hPa | 0 mm | - | 35 W/m² | - |
| 1777339558 | 12.22° C | 33% | 1014.6 hPa | 0 mm | - | 41 W/m² | - |
| 1777339255 | 12.22° C | 33% | 1014.4 hPa | 0 mm | - | 49 W/m² | - |
* Rain latest hour (hover to see other rain measurements)
** Current wind speed in m/s (hover to see current wind gust speed)